Colby, KS

11:12 PM CST on November 14, 2019 (GMT -0600)
Shaltz

Weather History for KCBK - September, 2019

Change the Weather History Date:

Monday, September 2, 2019

  Actual Average (WUND) Record (WUND)
Temperature  
Mean Temperature 81 °F -  
Max Temperature 98 °F - - (-1)
Min Temperature 64 °F - - (-1)
Cooling Degree Days 16    
Growing Degree Days 31 (Base 50)    
Moisture  
Dew Point 57 °F    
Average Humidity 53    
Maximum Humidity 100    
Minimum Humidity 14    
Precipitation  
Precipitation 0.00 in - - ()
Sea Level Pressure  
Sea Level Pressure 30.03 in    
Wind  
Wind Speed 12 mph (South)    
Max Wind Speed 20 mph    
Max Gust Speed 25 mph    
Visibility 10 miles    
Events      
Averages and records for this station are not official NWS values.
T = Trace of Precipitation, MM = Missing Value Source: NWS Daily Summary

Daily Weather History Graph

Daily Weather History Graph

Search for Another Location

Airport or City:

Astronomy

Sep. 02, 2019 Rise Set
Actual Time 7:13 AM CDT 8:13 PM CDT
Civil Twilight 6:45 AM CDT 8:41 PM CDT
Nautical Twilight 6:13 AM CDT 9:13 PM CDT
Astronomical Twilight 5:39 AM CDT 9:47 PM CDT
Moon 10:57 AM CDT (9/2) 10:37 PM CDT (9/2)
Length of Visible Light 13h 55m
Length of Day
13h 00m
Waxing Crescent, 15% of the Moon is Illuminated
Sep 2
Waxing Crescent
Sep 5
First Quarter
Sep 13
Full
Sep 21
Last Quarter
Sep 28
New

Hourly Weather History & Observations

Time (CDT) Temp. Heat Index Dew Point Humidity Pressure Visibility Wind Dir Wind Speed Gust Speed Precip Events Conditions
12:15 AM 69.8 °F - 68.0 °F 94% 30.09 in 10.0 mi South 13.8 mph 19.6 mph N/A   Clear
12:35 AM 69.8 °F - 68.0 °F 94% 30.09 in 10.0 mi South 12.7 mph 19.6 mph N/A   Clear
12:55 AM 69.8 °F - 68.0 °F 94% 30.09 in 10.0 mi South 12.7 mph 18.4 mph N/A   Clear
1:15 AM 69.8 °F - 68.0 °F 94% 30.09 in 10.0 mi South 11.5 mph - N/A   Clear
1:35 AM 69.8 °F - 68.0 °F 94% 30.09 in 10.0 mi South 10.4 mph 17.3 mph N/A   Clear
1:55 AM 69.8 °F - 68.0 °F 94% 30.09 in 10.0 mi South 10.4 mph - N/A   Clear
2:15 AM 68.0 °F - 68.0 °F 100% 30.08 in 10.0 mi South 10.4 mph - N/A   Clear
2:35 AM 69.8 °F - 68.0 °F 94% 30.07 in 10.0 mi South 12.7 mph - N/A   Clear
2:55 AM 69.8 °F - 66.2 °F 88% 30.07 in 10.0 mi South 12.7 mph - N/A   Clear
3:15 AM 69.8 °F - 64.4 °F 83% 30.07 in 10.0 mi South 11.5 mph - N/A   Clear
3:35 AM 69.8 °F - 64.4 °F 83% 30.06 in 10.0 mi South 12.7 mph 17.3 mph N/A   Clear
3:55 AM 68.0 °F - 64.4 °F 88% 30.06 in 10.0 mi South 11.5 mph - N/A   Clear
4:15 AM 68.0 °F - 62.6 °F 83% 30.06 in 10.0 mi South 11.5 mph - N/A   Clear
4:35 AM 68.0 °F - 62.6 °F 83% 30.06 in 10.0 mi South 10.4 mph - N/A   Clear
4:55 AM 68.0 °F - 62.6 °F 83% 30.06 in 10.0 mi South 9.2 mph - N/A   Clear
5:15 AM 68.0 °F - 62.6 °F 83% 30.06 in 10.0 mi South 9.2 mph - N/A   Clear
5:35 AM 68.0 °F - 60.8 °F 78% 30.06 in 10.0 mi South 10.4 mph - N/A   Clear
5:55 AM 68.0 °F - 60.8 °F 78% 30.06 in 10.0 mi South 10.4 mph - N/A   Clear
6:15 AM 68.0 °F - 60.8 °F 78% 30.05 in 10.0 mi South 10.4 mph 16.1 mph N/A   Clear
6:35 AM 66.2 °F - 60.8 °F 83% 30.05 in 10.0 mi South 8.1 mph - N/A   Clear
6:55 AM 66.2 °F - 60.8 °F 83% 30.05 in 10.0 mi SSW 9.2 mph - N/A   Clear
7:15 AM 64.4 °F - 60.8 °F 88% 30.05 in 10.0 mi SSW 8.1 mph - N/A   Clear
7:35 AM 64.4 °F - 59.0 °F 83% 30.06 in 10.0 mi SSW 9.2 mph - N/A   Clear
7:55 AM 66.2 °F - 59.0 °F 78% 30.06 in 10.0 mi South 8.1 mph - N/A   Clear
8:15 AM 68.0 °F - 59.0 °F 73% 30.06 in 10.0 mi South 8.1 mph - N/A   Clear
8:35 AM 68.0 °F - 59.0 °F 73% 30.06 in 10.0 mi South 8.1 mph - N/A   Clear
8:55 AM 69.8 °F - 59.0 °F 68% 30.06 in 10.0 mi SSW 8.1 mph - N/A   Clear
9:15 AM 71.6 °F - 59.0 °F 64% 30.06 in 10.0 mi South 9.2 mph - N/A   Clear
9:55 AM 77.0 °F - 59.0 °F 54% 30.06 in 10.0 mi SSW 9.2 mph - N/A   Clear
10:15 AM 78.8 °F - 59.0 °F 51% 30.06 in 10.0 mi SSW 9.2 mph - N/A   Clear
10:35 AM 78.8 °F - 59.0 °F 51% 30.06 in 10.0 mi SSW 10.4 mph - N/A   Clear
10:55 AM 80.6 °F 81.1 °F 59.0 °F 48% 30.06 in 10.0 mi SW 11.5 mph - N/A   Clear
11:15 AM 82.4 °F 82.0 °F 57.2 °F 42% 30.05 in 10.0 mi SSW 11.5 mph 16.1 mph N/A   Clear
11:35 AM 86.0 °F 85.4 °F 59.0 °F 40% 30.05 in 10.0 mi South 12.7 mph - N/A   Clear
11:55 AM 86.0 °F 85.4 °F 59.0 °F 40% 30.05 in 10.0 mi South 10.4 mph 16.1 mph N/A   Clear
12:15 PM 87.8 °F 87.1 °F 59.0 °F 38% 30.05 in 10.0 mi SSW 11.5 mph 18.4 mph N/A   Clear
12:35 PM 89.6 °F 88.9 °F 59.0 °F 36% 30.05 in 10.0 mi SSE 15.0 mph - N/A   Clear
12:55 PM 89.6 °F 88.9 °F 59.0 °F 36% 30.04 in 10.0 mi South 12.7 mph 17.3 mph N/A   Clear
1:15 PM 89.6 °F 88.9 °F 59.0 °F 36% 30.04 in 10.0 mi South 10.4 mph - N/A   Clear
1:35 PM 91.4 °F 90.7 °F 59.0 °F 34% 30.03 in 10.0 mi South 10.4 mph 18.4 mph N/A   Clear
1:55 PM 93.2 °F 91.9 °F 57.2 °F 30% 30.03 in 10.0 mi South 13.8 mph - N/A   Clear
2:15 PM 95.0 °F 93.0 °F 55.4 °F 26% 30.02 in 10.0 mi South 15.0 mph - N/A   Clear
2:35 PM 96.8 °F 95.1 °F 55.4 °F 25% 30.02 in 10.0 mi South 15.0 mph - N/A   Clear
2:55 PM 98.6 °F - 44.6 °F 16% 30.01 in 10.0 mi South 16.1 mph 21.9 mph N/A   Clear
3:15 PM 98.6 °F - 44.6 °F 16% 30.00 in 10.0 mi South 18.4 mph 21.9 mph N/A   Clear
3:35 PM 98.6 °F - 41.0 °F 14% 30.00 in 10.0 mi South 18.4 mph 25.3 mph N/A   Clear
3:55 PM 98.6 °F - 42.8 °F 15% 29.99 in 10.0 mi South 15.0 mph 21.9 mph N/A   Clear
4:15 PM 98.6 °F - 42.8 °F 15% 29.98 in 10.0 mi South 13.8 mph 18.4 mph N/A   Clear
4:35 PM 98.6 °F - 44.6 °F 16% 29.98 in 10.0 mi South 19.6 mph 23.0 mph N/A   Clear
5:15 PM 96.8 °F - 50.0 °F 20% 29.98 in 10.0 mi South 17.3 mph 25.3 mph N/A   Clear
5:55 PM 95.0 °F - 50.0 °F 22% 29.97 in 10.0 mi South 13.8 mph 25.3 mph N/A   Clear
6:15 PM 93.2 °F - 50.0 °F 23% 29.97 in 10.0 mi South 17.3 mph 24.2 mph N/A   Clear
6:35 PM 91.4 °F - 50.0 °F 24% 29.97 in 10.0 mi South 13.8 mph - N/A   Clear
6:55 PM 89.6 °F - 50.0 °F 26% 29.97 in 10.0 mi South 15.0 mph 23.0 mph N/A   Clear
7:15 PM 87.8 °F - 50.0 °F 27% 29.96 in 10.0 mi South 13.8 mph - N/A   Clear
7:35 PM 86.0 °F - 48.2 °F 27% 29.96 in 10.0 mi South 12.7 mph 17.3 mph N/A   Clear
7:55 PM 84.2 °F - 46.4 °F 27% 29.96 in 10.0 mi South 13.8 mph 20.7 mph N/A   Clear
8:15 PM 84.2 °F - 46.4 °F 27% 29.97 in 10.0 mi South 13.8 mph 18.4 mph N/A   Clear
8:35 PM 82.4 °F - 48.2 °F 30% 29.97 in 10.0 mi South 12.7 mph - N/A   Clear
8:55 PM 82.4 °F - 48.2 °F 30% 29.99 in 10.0 mi South 11.5 mph - N/A   Clear
9:15 PM 80.6 °F - 50.0 °F 34% 29.99 in 10.0 mi SSW 8.1 mph - N/A   Clear
9:35 PM 77.0 °F - 53.6 °F 44% 30.00 in 10.0 mi SW 10.4 mph - N/A   Clear
9:55 PM 78.8 °F - 51.8 °F 39% 29.99 in 10.0 mi SSW 10.4 mph - N/A   Clear
10:15 PM 78.8 °F - 50.0 °F 36% 29.99 in 10.0 mi South 12.7 mph - N/A   Clear
10:35 PM 78.8 °F - 51.8 °F 39% 29.99 in 10.0 mi SSW 10.4 mph - N/A   Clear
10:55 PM 78.8 °F - 50.0 °F 36% 29.99 in 10.0 mi SSW 12.7 mph 21.9 mph N/A   Clear
11:15 PM 78.8 °F - 50.0 °F 36% 29.99 in 10.0 mi SSW 12.7 mph 16.1 mph N/A   Clear
11:35 PM 78.8 °F - 50.0 °F 36% 30.00 in 10.0 mi South 12.7 mph 18.4 mph N/A   Clear
11:55 PM 77.0 °F - 50.0 °F 39% 30.00 in 10.0 mi South 12.7 mph 18.4 mph N/A   Clear